Showing default

OV2-5, 3428

Orbit data source: Space-Track

OV2-5, 3428 is a payload satellite owned by SAMSO (US) in GEO that was launched on Thu, 26 Sep 1968 UTC via a TITAN IIIC launch vehicle from the Air Force Eastern Test Range (AFETR). Payload-class satellites include a variety of spacecraft equipped with specific instruments for various scientific and technological missions. These include communications satellites like Starlink; space stations such as the ISS; scientific satellites like the Hubble; Earth observation satellites from companies like Planet Labs, Umbra, and HawkEye 360; GPS; miniature CubeSats for education and research; and military/defense satellites.

Not visible in the next 10 days
Identifier
3428, 1968-081A
Orbit
GEO
Country
Flag of USUS
Related business
Manufacturer
Northrop
Mission
Non-operational spacecraft
Bus & Motor
OV2, Unknown motor
Mass
~200 kg wet, ~200 kg dry
Launch date (UTC)
1968-09-26 (58 years ago)
Launch vehicle
TITAN IIIC
Launch site
Air Force Eastern Test Range (AFETR)
Object type
Payload
Rocket body
Debris
Shape & HBR
BOX + 4 PAN, 1.1 m
Radar Cross Section
Large (>1 m²)

Expand to show TLE details & history
Last TLE update: 10 hours ago

TLE from 10 hours ago
0 OV2-5
1 03428U 68081A   26258.08038480  .00000005  00000-0  00000-0 0  9999
2 03428   2.1904  52.4149 0078760 283.0803  78.5073  1.01558673121967
Epoch: 2026-09-15T01:55Z
TLE epoch observation values (Epoch: 2026-09-15T01:55:45.246Z)
Latitude
0.07612°
Longitude
31.89081°
Altitude
35,364.77 km
Speed
3.093 km/s
True Right ascension
03h 39m 31s
True Declination
0° 04' 34"
Sunlit
Object was in daylight at epoch
Visualization orbit readout
Latitude
Unknown
Longitude
Unknown
Altitude
Unknown
Speed
Unknown
Apparent Right ascension
Unknown
Apparent Declination
Unknown
Sunlit
N/A
Visualization observer readout
Local Sidereal Time
04:10:29
Azimuth
Unknown
Elevation
Unknown
Doppler factor
Unknown
Orbital elements
Apogee altitude
35,760.012 km
Perigee altitude
35,101.439 km
Semi-major axis
41,808.862 km
Eccentricity
0.00788
Inclination
2.1904°
RAAN
52.4149°
Arg. of periapsis
283.0803°
True anomaly
79.39343°
Mean anomaly
78.5073°
Eccentric anomaly
78.9502°
Mean motion
0.25389 °/min
Orbital period
1,417.95 mins
BSTAR
0
Loading maneuver chart data...
Computing Atmospheric mass density...

Documentation

Showing up to 5 results
|